www.pogodaiklimat.ru

Погода и климат >> Архив погоды >> Ирак >> Al-Nukhib


ПОГОДА в Al-Nukhib

  • Прогноз погоды в Al-Nukhib
  • Монитор погоды в Al-Nukhib
  • Климат города

АРХИВ ПОГОДЫ в Al-Nukhib

Время (UTC), дата Ветер
(напр.,м/с)
 
Видим.   Явления Облачность Т
(С)
Тd
(С)
f
(%)
Тe
(С)
Тes
(С)
Комфортность P
(гПа)
Po
(гПа)
Тmin
(С)
Tmax
(С)
R
(мм)
R24
(мм)
S
(см)
18 11.12 штиль 0 10 км ясно +13.7 +9.4 75 +13 +13 1021.4 1021.0 +18.7
03 12.12 СЗ 1 10 км ясно +9.6 +6.8 83
06 12.12 СЗ 3 10 км ясно +10.5 +6.4 76 +9 +10 1021.0 1021.0 +8.7
09 12.12 С 3 10 км ясно +17.3 +10.3 63 +17 +23 1019.7 1020.0
12 12.12 СЗ 3 10 км ясно +19.3 +10.4 56 +21 +23 комфорт 1018.1 1018.0
15 12.12 штиль 0 10 км ясно +17.5 +9.7 60 +18 +18 1018.7 1019.0
18 12.12 СЗ 2 10 км ясно +13.0 +9.6 80 +12 +12 1012.0 1012.0 +19.8
06 13.12 СЗ 2 10 км 3/0
[Ci fib]
+10.7 +7.1 78 +9 +11 1020.5 1021.0 +8.4
09 13.12 ЮЗ 4 10 км 4/4 900 м
[Sc]
+16.2 +10.3 68 +16 +18 1019.5 1020.0
12 13.12 Ю 4 10 км 5/5 900 м
[Sc]
+19.0 +9.5 54 +20 +21 1018.3 1018.0
15 13.12 Ю 2 10 км 4/4 900 м
[Sc]
+17.2 +11.3 68 +18 +18 1018.9 1019.0
18 13.12 штиль 0 10 км 4/4 900 м
[Sc]
+13.4 +9.2 76 +13 +13 1020.7 1021.0 +19.4
06 14.12 СЗ 2 10 км ясно +10.0 +6.3 78 +9 +11 1027.0 1027.0 +8.0
09 14.12 СЗ 2 10 км ясно +14.2 +7.7 65 +14 +21 1026.5 1027.0
12 14.12 З 2 10 км ясно +17.3 +9.4 60 +18 +21 1025.5 1026.0
15 14.12 СЗ 2 10 км 3/0
[Ci fib]
+13.3 +8.7 74 +13 +13 1026.4 1026.0
18 14.12 штиль 0 10 км ясно +12.0 +10.0 88 +11 +11 1027.2 1027.0 +17.7
03 15.12 З 1 10 км ясно +6.8 +4.9 88 +6 +6 1027.6 1028.0
06 15.12 ЮЗ 4 10 км ясно +8.4 +6.2 86 +5 +7 1028.2 1028.0 +6.5
12 15.12 СЗ 3 10 км ясно +15.4 +6.3 55 +15 +17 1025.2 1025.0
15 15.12 В 2 10 км 3/0
[Ci sp]
+14.3 +6.6 60 +14 +14 1025.7 1026.0
18 15.12 штиль 0 10 км ясно +11.6 +7.9 78 +11 +11 1026.7 1027.0 +15.7
06 16.12 штиль 0 10 км 5/0
[Ci fib]
+8.8 +7.1 89 +8 +11 1027.1 1027.0 +7.0
09 16.12 ЮВ 4 10 км 9/0
[As trans Ci fib]
+14.8 +7.5 62 +14 +16 1025.1 1025.0
12 16.12 В 5 10 км 10/0
[As trans]
+16.2 +6.6 53 +15 +16 1022.2 1022.0
15 16.12 СВ 5 10 км в посл. час дождь 10/10 900 м
[Sc]
+14.0 +7.9 67 +12 +12 1022.7 1023.0
18 16.12 В 3 10 км в посл. час дождь 10/10 900 м
[Sc]
+12.3 +9.3 82 +11 +11 1023.1 1023.0 +16.5 0.4
06 17.12 В 5 8000 м в посл. час дождь 10/10 900 м
[Sc]
+10.5 +9.5 94 +7 +7 1016.9 1017.0 +10.4 4
09 17.12 В 6 7000 м дымка 8/8 900 м
[Sc]
+13.0 +11.1 88 +11 +11 1014.5 1015.0
12 17.12 СЗ 5 10 км 10/10 900 м
[Sc]
+15.6 +12.7 83 +14 +14 1013.5 1014.0
15 17.12 СЗ 3 7000 м дымка 10/10 900 м
[Sc]
+13.2 +11.3 88 +12 +12 1016.8 1017.0
18 17.12 СВ 4 7000 м дымка 10/10 900 м
[Sc]
+12.2 +10.6 90 +10 +10 1018.6 1019.0 +15.9
03 18.12 штиль 0 300 м туман ясно +6.7 +6.7 100 +6 +6 1023.0 1023.0
06 18.12 СЗ 1 <100 м туман ?/? +7.4 +7.4 100 +6 +6 1024.5 1025.0 +6.7
12 18.12 З 4 8000 м дымка 6/6 900 м
[St]
+15.0 +11.6 80 +14 +15 1022.1 1022.0
15 18.12 штиль 0 10 км ясно +13.6 +11.5 87 +13 +13 1023.5 1024.0

 

Местоположение метеостанции Al-Nukhib (Ирак): широта 32.03 долгота 42.25 высота над уровнем моря 305 м.

В архиве по умолчанию представлена погода в Al-Nukhib за последнюю неделю. Архивные данные за месяц целиком и за предыдущие месяцы, начиная с января 2011 года, Вы можете получить, выбрав интересующий диапазон дат из раскрывающегося списка и нажав кнопку "Ввод!".


*Определитесь, кто Вы:
робот инопланетянин человек

Внимание! Время в таблицах - всемирное. Для получения местного времени необходимо прибавить поправку, которая в Al-Nukhib равна 3 ч.

Смотрите также архив погоды в соседних городах и на ближайших метеорологических станциях:

Погода в Arar (Саудовская Аравия) (165 км)
Погода в Karbalaa (Ирак) (179 км)
Погода в Ramadi (Ирак) (187 км)
Погода в Najaf (Ирак) (195 км)
Погода в Hella (Ирак) (212 км)
Погода в Rutbah (Ирак) (216 км)
Погода в Heet (Ирак) (227 км)
Погода в Haditha (Ирак) (227 км)
Погода в Baghdad (Ирак) (228 км)
Погода в Diwaniya (Ирак) (258 км)

Пояснения к столбцам:

Ветер - указаны скорость ветра в м/с - средняя за 10 мин, порывы в срок и между сроками (в фигурных скобках) и направление, откуда дует ветер: С - северный, СВ - северо-восточный, В - восточный, ЮВ - юго-восточный, Ю - южный, ЮЗ - юго-западный, З - западный, СЗ - северо-западный.
Видимость - горизонтальная дальность видимости в метрах или километрах. При видимости от 1 до 10 км при отсутствии осадков обычно наблюдается дымка, при ухудшении видимости до 1 км и менее - туман. В сухую погоду видимость может ухудшаться дымом, пылью или мглою.
Явления - указаны атмосферные явления, наблюдавшиеся в срок или в последний час перед сроком; фигурными скобками обозначены явления, наблюдавшиеся между сроками (за 1-3 часа до срока); квадратными скобками обозначены град или гололедные отложения с указанием их диаметра в мм.
Облачность - указаны через наклонную черту общая и нижняя облачность в баллах и высота нижней границы облаков в метрах; квадратными скобками обозначены формы облаков: Ci - перистые, Cs - перисто-слоистые, Cc - перисто-кучевые, Ac - высококучевые, As - высокослоистые, Sc - слоисто-кучевые, Ns - слоисто-дождевые, Cu - кучевые, Cb - кучево-дождевые. Подробнее классификацию облаков см. в Атласе облаков (PDF).
T - Температура воздуха - температура, измеренная на высоте 2 м над землей.
Td - Температура точки росы - температура, при понижении до которой содержащийся в воздухе водяной пар достигнет насыщения.
f - Относительная влажность воздуха - влажноcть воздуха, измеренная на высоте 2 м над землей.
Te - Эффективная температура - температура, которую ощущает одетый по сезону человек в тени. Характеристика душности погоды. При расчете учитывается влияние влажности воздуха и скорости ветра на теплоощущения человека.
Tes - Эффективная температура на солнце - температура, которую ощущает человек, с поправкой на солнечный нагрев. Характеристика знойности погоды. Зависит от высоты солнца над горизонтом, облачности и скорости ветра. Ночью, в пасмурную погоду, а также при ветре 12 м/с и более поправка равна нулю.
P - Атмосферное давление - приведенное к уровню моря атмосферное давление.
Po - Атмосферное давление - измеренное на уровне метеостанции атмосферное давление.
Tmin - Минимальная температура - минимум температуры воздуха на высоте 2 м над землей.
Tmax - Максимальная температура - максимум температуры воздуха на высоте 2 м над землей.
R - Количество осадков - Количество выпавших осадков за период времени, мм. При наведении курсора мыши на число - период времени, за который выпало указанное количество осадков.
R24 - Количество осадков - Количество выпавших осадков за 24 часа, мм.
S - Снежный покров - Высота снежного покрова, см. При наведении курсора мыши на число - состояние снежного покрова и степень покрытия местности в баллах.